This is the latest recevied weather packets stored in our database for station/object KC7UNY-13. If no packets are shown the sender has not sent any weather packets the latest 10 day(s).
| Time | Temp. | Humidity | Pressure | Rain* | Wind** | Luminosity | Snow |
|---|---|---|---|---|---|---|---|
| 1777390387 | 22.22° C | 29% | 1017 hPa | 0 mm | - | 336 W/m² | - |
| 1777390083 | 22.22° C | 29% | 1017.1 hPa | 0 mm | - | 319 W/m² | - |
| 1777389780 | 21.67° C | 29% | 1016.7 hPa | 0 mm | - | 310 W/m² | - |
| 1777389476 | 21.67° C | 30% | 1016.8 hPa | 0 mm | - | 284 W/m² | - |
| 1777389174 | 21.67° C | 31% | 1017 hPa | 0 mm | - | 271 W/m² | - |
| 1777388871 | 21.11° C | 31% | 1016.8 hPa | 0 mm | - | 137 W/m² | - |
| 1777388568 | 21.11° C | 31% | 1016.6 hPa | 0 mm | - | 239 W/m² | - |
| 1777388264 | 20.56° C | 32% | 1016.7 hPa | 0 mm | - | 224 W/m² | - |
| 1777387964 | 20.56° C | 32% | 1016.7 hPa | 0 mm | - | 210 W/m² | - |
| 1777387661 | 20° C | 33% | 1016.6 hPa | 0 mm | - | 195 W/m² | - |
| 1777387358 | 20° C | 33% | 1016.5 hPa | 0 mm | - | 182 W/m² | - |
| 1777387057 | 19.44° C | 34% | 1016.6 hPa | 0 mm | - | 168 W/m² | - |
| 1777386754 | 18.89° C | 35% | 1016.3 hPa | 0 mm | - | 155 W/m² | - |
| 1777386451 | 18.33° C | 35% | 1016.5 hPa | 0 mm | - | 142 W/m² | - |
| 1777386148 | 18.33° C | 37% | 1016.4 hPa | 0 mm | - | 130 W/m² | - |
| 1777385844 | 18.33° C | 37% | 1016.3 hPa | 0 mm | - | 119 W/m² | - |
| 1777385541 | 17.78° C | 37% | 1016.5 hPa | 0 mm | - | 108 W/m² | - |
| 1777385239 | 16.67° C | 38% | 1016.3 hPa | 0 mm | - | 99 W/m² | - |
| 1777384934 | 16.67° C | 39% | 1016.4 hPa | 0 mm | - | 89 W/m² | - |
| 1777384632 | 16.11° C | 40% | 1016.5 hPa | 0 mm | - | 80 W/m² | - |
| 1777384332 | 16.11° C | 39% | 1016.2 hPa | 0 mm | - | 71 W/m² | - |
| 1777384028 | 15.56° C | 40% | 1016.3 hPa | 0 mm | - | 64 W/m² | - |
| 1777383724 | 15° C | 41% | 1016.2 hPa | 0 mm | - | 48 W/m² | - |
| 1777383421 | 14.44° C | 43% | 1016.2 hPa | 0 mm | - | 37 W/m² | - |
| 1777383116 | 13.89° C | 43% | 1016.2 hPa | 0 mm | - | 41 W/m² | - |
* Rain latest hour (hover to see other rain measurements)
** Current wind speed in m/s (hover to see current wind gust speed)